Location: ????????
(38.4362°N, 22.8767°E)
Time: 16:58:30
(UTC+00:00)

ACS3 Solar Sail - Pass Details

Date: 30 June 2024
Orbit: 993 x 1023 km, 97.4° (Epoch: 21 July)

Event Time Altitude Azimuth Distance (km) Brightness Sun altitude
Exits shadow 20:38:00 23° 209° (SSW) 1,967 6.1 -22.9°
Maximum altitude 20:41:21 41° 264° (W) 1,409 5.7 -23.2°
Drops below altitude 10° 20:47:11 10° 333° (NNW) 2,763 8.3 -23.7°
Sets 20:49:50 0° 341° (NNW) 3,716 9.2 -23.9°
